Погода в Порозово

Россия / Удмуртская Республика     57°16′36″N   53°57′21″E
темп.,
°C
ветер,
м/с
пор.,
м/с
влажн.,
%
обл.,
%
осадки,
мм/ч
давл.,
гПа
погр.,
м
6 марта, сб
сб601:00−14з459715 0.0 100670
04:00−13зюз369636 0.0 1008116
07:00−15зсз3596100 0.0 100898
10:00−14сз468970 0.0 1010313
13:00−11зсз458222 0.0 1010654
16:00−11зсз468461 0.0 1011794
19:00−15з3392100 0.0 101224
22:00−18зсз239674 0.1 101220
7 марта, вс
вс701:00−20з1210034 0.0 101220
04:00−21юз1110058 0.0 101220
07:00−21юз1210097 0.0 101120
10:00−17юз239497 0.1 1011220
13:00−13юз2384100 0.0 1010533
16:00−11ююз3384100 0.1 1008646
19:00−17ю339668 0.0 100821
22:00−19ююв2310051 0.0 100821
8 марта, пн
пн801:00−19юв349999 0.1 100592
04:00−16юв599799 0.1 1003267
07:00−14ююв51095100 0.8 1000478
10:00−11юв61094100 1.4 998582
13:00−5ю61092100 0.6 998800
16:00−5юз687880 0.8 9981062
19:00−9ююз5990100 0.0 999207
22:00−11ююв2393100 0.0 99829
9 марта, вт
вт901:00−10в4992100 0.0 994209
04:00−8св71095100 2.4 991421
07:00−9ссз71193100 1.8 992464
10:00−8зсз81291100 2.1 996578
13:00−7з6987100 0.1 1000668
16:00−7зсз5786100 0.1 1003822
19:00−11зсз359499 0.1 1006127
22:00−14сз339598 0.1 100863
10 марта, ср
ср1001:00−16с3396100 0.1 100957
04:00−18ссв4696100 0.3 1011180
07:00−20ссв3696100 0.1 1011190
10:00−19ссв4694100 0.2 1013322
13:00−17с459097 0.1 1013440
16:00−16с458899 0.1 1014500
19:00−19с3392100 0.0 101572
22:00−22ссз339497 0.0 101724